Regional Weather Roundup
Issued by NWS

Home | Current Version | Previous Version | Graphics & Text | Print | Product List | Glossary On
Versions: 1 2 3 4 5 6 7 8 9 10 11 12 13 14 15 16 17 18 19 20 21 22 23 24 25 26 27 28 29 30 31 32 33 34 35 36 37 38 39 40 41 42 43 44 45 46 47 48 49 50
000
ASUS43 KDTX 051901
RWRMI
MICHIGAN HOURLY REGIONAL WEATHER ROUNDUP
NATIONAL WEATHER SERVICE DETROIT/PONTIAC MI
300 PM EDT SUN JUL 05 2015

NOTE: "FAIR" INDICATES FEW OR NO CLOUDS BELOW 12,000 FEET WITH NO
SIGNIFICANT WEATHER AND/OR OBSTRUCTION TO VISIBILITY.

MIZ047>049-052>055-059>063-066>070-074>076-081>083-052000-
SOUTHEAST LOWER MICHIGAN

CITY           SKY/WX    TMP DP  RH WIND       PRES   REMARKS
ADRIAN         MOSUNNY   80  57  45 CALM      30.12F
ALMA           SUNNY     81  56  42 SW5       30.10F
ANN ARBOR      MOSUNNY   80  59  48 CALM      30.12S
BAD AXE        MOSUNNY   80  60  50 SW3       30.11F
CARO           SUNNY     81  62  52 S3        30.10F
DETROIT CITY   MOSUNNY   81  58  45 S6        30.12S
DETROIT        MOSUNNY   80  57  45 SE6       30.13S
FLINT          SUNNY     83  59  44 W7        30.11F
GROSSE ILE     MOSUNNY   75  57  53 S6        30.11F
HILLSDALE      MOSUNNY   80  59  50 SE6       30.12F
HOWELL         SUNNY     80  58  47 S3        30.12S

CITY           SKY/WX    TMP DP  RH WIND       PRES   REMARKS
JACKSON        MOSUNNY   81  62  52 SW7       30.11F
LAMBERTVILLE   MOSUNNY   81  55  41 SE7       30.12S
LANSING        MOSUNNY   82  59  45 VRB3      30.11F
LAPEER         FAIR      81  57  43 S7        30.12S
MASON          SUNNY     78  58  51 SE5       30.11F
MONROE         MOSUNNY   78  56  46 E6        30.11F
MT. CLEMENS    MOSUNNY   79  60  51 SE12      30.10F
PONTIAC        MOSUNNY   81  58  45 SE5       30.11F
PORT HOPE        N/A     69  63  81 E5        30.10F
PORT HURON     SUNNY     79  59  50 S3        30.12S
TRI CITIES     SUNNY     82  58  43 S8        30.10F
MIDLAND        FAIR      81  57  43 S3        30.08F
TROY           MOSUNNY   82  54  37 SW5       30.13S
SAGINAW HB     MOSUNNY   81  59  47 S7        30.09F
$$
MIZ043>046-050>051-056>058-064>065-071>073-077>080-052000-
SOUTHWEST LOWER MICHIGAN

CITY           SKY/WX    TMP DP  RH WIND       PRES   REMARKS
BATTLE CREEK   MOSUNNY   82  61  48 MISG      30.11F
BENTON HARBOR  SUNNY     80  59  48 NW7       30.09F
BIG RAPIDS     SUNNY     80  55  43 SE8       30.09S
COLDWATER      SUNNY     79  55  43 CALM      30.11F
FREMONT        FAIR      81  57  43 SW9       30.08S HAZE
HOLLAND        SUNNY     82  59  45 W7        30.10F
GRAND RAPIDS   PTSUNNY   80  60  50 SW7       30.10S
IONIA          FAIR      82  58  45 SW9       30.09S
KALAMAZOO      SUNNY     82  59  45 S7        30.10F
LUDINGTON      SUNNY     77  61  58 SW10      30.08S
MARSHALL       SUNNY     80  59  48 CALM      30.10F
MOUNT PLEASANT SUNNY     81  58  44 CALM      30.09S
MUSKEGON       PTSUNNY   81  59  47 SW8       30.09S
SOUTH HAVEN    SUNNY     79  59  49 W7        30.09F
$$
MIZ016>042-052000-
NORTHERN LOWER MICHIGAN

CITY           SKY/WX    TMP DP  RH WIND       PRES   REMARKS
ALPENA         SUNNY     78  60  53 E12       30.08F
BEAVER ISLAND  SUNNY     78  60  54 W10       30.06S
BELLAIRE       SUNNY     83  58  42 W3        30.05S
CADILLAC       MOSUNNY   82  61  48 S9        30.08F
CHARLEVOIX     PTSUNNY   82  63  52 W8        30.09R
FRANKFORT      SUNNY     79  57  45 W5        30.06S
GAYLORD        MOSUNNY   81  57  43 S7        30.08F
GRAYLING       MOSUNNY   80  60  50 SW5       30.09S
HARBOR SPRINGS SUNNY     81  64  54 W6        30.06S
HOUGHTON LAKE  SUNNY     81  59  47 VRB7      30.09F
MANISTEE       MOSUNNY  N/A N/A N/A W12       30.06S
OSCODA         SUNNY     76  58  53 SE8       30.09F
PELLSTON       MOSUNNY   82  63  52 SW9       30.06F
ROGERS CITY    MOSUNNY   81  61  50 SE6       30.07F
TRAVERSE CITY  PTSUNNY   84  61  45 S7        30.03F
$$
MIZ007>008-015-052000-
EASTERN UPPER MICHIGAN

CITY           SKY/WX    TMP DP  RH WIND       PRES   REMARKS
KINROSS        MOSUNNY   81  63  54 S13       30.06S
MACKINAC ISLAN PTSUNNY   74  61  65 E3        30.06F
NEWBERRY       SUNNY     77  64  63 S10G16    30.04S
S. S. MARIE    PTSUNNY   80  63  55 SW8       30.04F
$$
MIZ004>006-011>014-085-052000-
CENTRAL UPPER MICHIGAN

CITY           SKY/WX    TMP DP  RH WIND       PRES   REMARKS
MANISTIQUE     SUNNY     66  58  76 S8        30.04S HAZE
ESCANABA       SUNNY     77  63  61 S12G24    29.99F
MENOMINEE      SUNNY     81  63  54 S15G22    30.00F
SAWYER-GWINN   MOSUNNY   82  61  47 SW17      29.99S HAZE
$$
MIZ001>003-009>011-084-052000-
WESTERN UPPER MICHIGAN

CITY           SKY/WX    TMP DP  RH WIND       PRES   REMARKS
IRON MOUNTAIN  PTSUNNY   82  62  50 S14G21    29.98F
HOUGHTON       MOSUNNY   82  60  47 S9        29.92F
COPPER HARBOR    N/A     64  57  78 CALM      29.92F
IRONWOOD       PTSUNNY   79  63  57 S8        29.89S
$$

ABBREVIATIONS USED IN REMARKS
   TC - TEMPERATURE IN CELSIUS
  WCI - WIND CHILL INDEX
   HX - HEAT INDEX
  VSB - VISIBILITY




USA.gov is the U.S. government's official web portal to all federal, state and local government web resources and services.